Regional Weather Roundup
Issued by NWS Charleston, SC

Home | Current Version | Previous Version | Text Only | Print | Product List | Glossary On
Versions: 1 2 3 4 5 6 7 8 9 10 11 12 13 14 15 16 17 18 19 20 21 22 23 24 25 26 27 28 29 30 31 32 33 34 35 36 37 38 39 40 41 42 43 44 45 46 47 48 49 50
000
ASUS42 KCHS 290225
RWRCHS

REGIONAL WEATHER ROUNDUP
NATIONAL WEATHER SERVICE CHARLESTON SC
900 PM EST FRI NOV 28 2014

NOTE: "FAIR" INDICATES FEW OR NO CLOUDS BELOW 12,000 FEET WITH NO
SIGNIFICANT WEATHER AND/OR OBSTRUCTIONS TO VISIBILITY.

NOT ALL STATIONS ARE QUALITY CONTROLLED BY THE NATIONAL
WEATHER SERVICE. USE DATA WITH CAUTION...ESPECIALLY
DEWPOINT OBSERVATIONS.

SCZ027-030-031-034>040-042>050-290300-
...SOUTHEAST SOUTH CAROLINA...

CITY           SKY/WX    TMP DP  RH WIND       PRES   REMARKS
N CHARLESTON   CLEAR     37  30  75 CALM      30.35S
WATERFRONT PRK   N/A     45 N/A N/A N5          N/A
MOUNT PLEASANT FAIR      34  34 100 CALM      30.35S
JOHNS ISLAND   CLEAR     36  34  93 CALM      30.36R
PINOPOLIS        N/A     45  28  53 CALM      30.27R
MONCKS CORNER  FAIR      34  32  93 CALM      30.35R
SUMMERVILLE    FAIR      34  32  93 CALM      30.36S
BEAUFORT MCAS  CLEAR     38  34  85 CALM      30.35R
BEAUFORT ARPT  FAIR      37  37 100 CALM      30.35R
HILTON HEAD IS CLEAR     36  34  93 CALM      30.37R
WALTERBORO     CLEAR     32 N/A N/A CALM      30.36S
ALLENDALE      FAIR      34  32  93 CALM      30.33F

...SOUTHERN MIDLANDS AND PEE DEE...

CITY           SKY/WX    TMP DP  RH WIND       PRES   REMARKS
GEORGETOWN     NOT AVBL
KINGSTREE      NOT AVBL
ORANGEBURG     CLEAR     34  29  82 CALM      30.34S
BARNWELL         N/A     34  32  93 CALM      30.34S
AIKEN          FAIR      32  30  93 CALM      30.35S
MANNING        NOT AVBL
COLUMBIA       CLEAR     34  28  79 CALM      30.33F
SUMTER         CLEAR     34  29  80 SW2       30.32S
FLORENCE       CLEAR     33  28  81 CALM      30.34S
MYRTLE BEACH   CLEAR     36  28  75 N6        30.35  WCI  31
N MYRTLE BEACH CLEAR     33  29  85 CALM      30.35R

$$

GAZ063-065-086>088-099>101-113>116-118-119-134>141-150-290300-
...SOUTHEAST GEORGIA...

CITY           SKY/WX    TMP DP  RH WIND       PRES   REMARKS
SAVANNAH ARPT  CLEAR     40  33  76 CALM      30.36R
HUNTER AAF     CLEAR     37  34  88 W2        30.33R
FORT STEWART   CLEAR     35  32  91 CALM      30.34R
STATESBORO     NOT AVBL
SYLVANIA       CLEAR     37  35  94 CALM      30.34F
CLAXTON        NOT AVBL

...CSRA...CENTRAL AND FAR SOUTHEAST GEORGIA...

CITY           SKY/WX    TMP DP  RH WIND       PRES   REMARKS
THOMSON        CLEAR     33  33 100 CALM      30.37S
AUGUSTA-BUSH   CLEAR     32  27  81 CALM      30.34R
AUGUSTA-DANIEL CLEAR     41  27  57 CALM      30.33S
SWAINSBORO     FAIR      36  36 100 CALM      30.34R
VIDALIA        CLEAR     37  34  87 CALM      30.33S
HAZLEHURST     FAIR      38  36  92 CALM      30.33R
ALMA           CLEAR     35  33  92 CALM      30.34R
WAYCROSS       CLEAR     40  38  93 CALM      30.34S
JESUP          FAIR      37  36  93 CALM      30.36R
BAXLEY         FAIR      37  36  93 CALM      30.33S
BRUNSWICK      CLEAR     37  34  87 CALM      30.36R
SAINT SIMONS   CLEAR     40  34  79 CALM      30.35R

$$

SCZ027-028-034-036>038-045-046-048>050-GAZ119-141-290300-
...LAKE AND SUPPLEMENTAL COASTAL OBSERVATIONS...

STATION/POSITION TIME  TEMP    WIND        PRES    WAVE   SWELL
                       AIR SEA DIR/SP/G            HT/PER HT/PER/DIR
                 (UTC) (F)     (DEG/KT/KT) (MB)    (FT/S) (FT/S/D)
UPR LAKE MARION  NOT AVBL
WINYAH BAY       0200   35     320/  3     1027.0S
LAKE MURRAY      0100   44      80/  3/  6 1026.1S
ACE BASIN NERRS  0200   35        CALM     1027.0S
FORT PULASKI     0200   45     220/  2/  3 1027.9R
SAPELO ISLAND    0200   37      30/  2     1027.0S

$$

ANZ835-935-AMZ111-154-330-350-352-354-370-450-454-472-290300-
...C-MAN AND BUOY OBSERVATIONS...

STATION/POSITION TIME  TEMP    WIND        PRES    WAVE   SWELL
                       AIR SEA DIR/SP/G            HT/PER HT/PER/DIR
                 (UTC) (F)     (DEG/KT/KT) (MB)    (FT/S) (FT/S/D)
BUOY 41004       0200   50 72  350/  8/ 14 1027.1S   4/ 9   3/ 9
BUOY 41008       0200   50 62   30/  6/  8 1027.3R   3/ 6   3/ 70/ 6
FOLLY BEACH CMAN 0200   44     350/  4/  6 1028.0S
CAPERS NEARSHORE 0100   46     360/  8/  8   N/A
FRIPP NEARSHORE  NOT AVBL


STATION/POSITION TIME  TEMP    WIND        PRES    WAVE   SWELL
                       AIR SEA DIR/SP/G            HT/PER HT/PER/DIR
                 (UTC) (F)     (DEG/KT/KT) (MB)    (FT/S) (FT/S/D)
5E ST. MARYS GA  0200      60                N/A     3/ 7
FRYING PAN BUOY  0200   47 67  330/  8/ 12 1027.7S   3/ 6   3/ 60/ 6
BUOY 41025       0200   42     330/ 10/ 16 1026.8R   4/ 8   3/ 20/ 8
CAPE LOOKOUT NC  0200   42     350/  6/  7 1027.2R
BUOY 41002       0143   58 72  360/ 16/ 21 1024.0S   8/ 8   5/340/ 8
BUOY 41010       0200   65 77   10/ 14/ 17 1023.7R   6/ 7   5/360/ 7
ST AUGUSTINE FL  0200   46     310/  6/  8 1027.2S


$$


USA.gov is the U.S. government's official web portal to all federal, state and local government web resources and services.